Regional Weather Roundup
Issued by NWS

Home | Current Version | Previous Version | Graphics & Text | Print | Product List | Glossary On
Versions: 1 2 3 4 5 6 7 8 9 10 11 12 13 14 15 16 17 18 19 20 21 22 23 24 25 26 27 28 29 30 31 32 33 34 35 36 37 38 39 40 41 42 43 44 45 46 47 48 49 50
000
ASUS43 KOAX 231610
RWRNE

WEATHER ROUNDUP FOR NEBRASKA
NATIONAL WEATHER SERVICE OMAHA NE
1100 AM CDT TUE MAY 23 2017

NOTES: SATELLITE DATA IS BEING USED TO AUGMENT CLOUD COVER ABOVE
       12000 FEET.
       "FAIR" INDICATES FEW OR NO CLOUDS BELOW 12,000 FEET WITH NO
       SIGNIFICANT WEATHER AND/OR OBSTRUCTIONS TO VISIBILITY.

  * THESE STATIONS DO NOT REPORT WEATHER SUCH AS RAIN...SNOW OR FOG.

NEZ001>004-019>022-054>056-231700-
NEBRASKA PANHANDLE

CITY           SKY/WX    TMP DP  RH WIND       PRES   REMARKS
SCOTTSBLUFF    CLOUDY    57  36  45 NW22G28   30.15F
ALLIANCE       CLOUDY    50  38  63 N20       30.14S
CHADRON        SUNNY     55  39  54 N13       30.15F
GORDON         FAIR      53  37  53 N18       30.11S
KIMBALL        CLOUDY    53  36  52 N21G28    30.18F
SIDNEY         CLOUDY    52  39  61 N17G24    30.15F
$$

NEZ057>060-069>072-079>082-231700-
SOUTHWEST NEBRASKA

CITY           SKY/WX    TMP DP  RH WIND       PRES   REMARKS
NORTH PLATTE   MOSUNNY   58  41  53 N17G28    30.05F
IMPERIAL       PTSUNNY   56  38  50 N20G29    30.10S
LEXINGTON      CLOUDY    58  46  64 NW23G29   30.02S
MCCOOK         CLOUDY    59  41  51 NW23G31   30.05S
OGALLALA       CLOUDY    56  39  51 N18G26    30.11S
$$

NEZ005>010-023>029-035>040-094-231700-
NORTH CENTRAL NEBRASKA

CITY           SKY/WX    TMP DP  RH WIND       PRES   REMARKS
VALENTINE      CLOUDY    55  36  48 N20G31    30.04F
AINSWORTH      CLOUDY    48  40  74 N17G23    30.03S
BROKEN BOW     CLOUDY    54  38  54 N24       30.01R
O`NEILL        LGT RAIN  47  43  85 NW17      29.98F
ORD            CLOUDY    53  39  59 N22G30    29.97S
THEDFORD       CLOUDY    54  38  54 NW26G33   30.05F
$$

NEZ041-046>049-061>064-073>077-083>087-231700-
SOUTH CENTRAL NEBRASKA

CITY           SKY/WX    TMP DP  RH WIND       PRES   REMARKS
GRAND ISLAND   CLOUDY    58  45  62 NW21G29   29.96S
AURORA         CLOUDY    58  45  63 NW21      29.94F
HASTINGS       CLOUDY    58  46  64 NW20G29   29.97F
HEBRON         CLOUDY    59  47  65 NW9       29.94F
HOLDREGE       CLOUDY    55  44  64 N20G29    30.00S
KEARNEY *      CLOUDY    57  43  58 N20G29    29.99S
YORK           CLOUDY    57  46  67 NW20      29.93S
$$

NEZ011>018-030>034-042>045-231700-
NORTHEAST NEBRASKA

CITY           SKY/WX    TMP DP  RH WIND       PRES   REMARKS
NORFOLK        CLOUDY    52  41  66 NW16G25   29.90F
ALBION         CLOUDY    54  41  61 N14G22    29.95R
BLAIR          CLOUDY    53  45  74 NW14      29.90S
FREMONT        CLOUDY    55  46  70 NW12      29.91F
TEKAMAH        CLOUDY    55  45  68 NW18      29.89F
WAYNE          CLOUDY    52  46  80 N17G23    29.91S
$$

NEZ050>053-065>068-078-088>093-231700-
SOUTHEAST NEBRASKA

CITY           SKY/WX    TMP DP  RH WIND       PRES   REMARKS
LINCOLN        CLOUDY    59  46  62 NW7       29.93F
OMAHA EPPLEY   CLOUDY    56  45  66 NW10      29.90S
BEATRICE       CLOUDY    60  47  62 NW12      29.92F
FALLS CITY     SUNNY     61  46  57 NW9       29.89F
NEBRASKA CITY  MOSUNNY   57  39  51 N14       29.90F
PLATTSMOUTH    CLOUDY    56  42  60 NW9       29.90S
$$

NEZ044-045-051>053-067-231700-
OMAHA AREA

CITY           SKY/WX    TMP DP  RH WIND       PRES   REMARKS
OMAHA EPPLEY   CLOUDY    56  45  66 NW10      29.90S
BLAIR          CLOUDY    53  45  74 NW14      29.90S
FREMONT        CLOUDY    55  46  70 NW12      29.91F
MILLARD        CLOUDY    57  46  64 NW12G17   29.90F
OFFUTT AFB     CLOUDY    56  44  63 NW15      29.89F
PLATTSMOUTH    CLOUDY    56  42  60 NW9       29.90S
WAHOO          CLOUDY    56  44  65 NW13      29.92S
$$




USA.gov is the U.S. government's official web portal to all federal, state and local government web resources and services.